KTXEAGLE7 Weather Reports


Display with metric or nautical units.
time (UTC)temp
F
wind
direction
speed
MPH
gust
MPH
rain 1hr
in
rain 24hr
in
rain mn
in
humidity
%
barometer
mb
20260503024509 65 261 0.0 0.0 0.00 0.00 0.00 76 1020.8
20260503023008 66 261 0.0 0.0 0.00 0.00 0.00 76 1020.8
20260503021508 66 261 0.0 0.0 0.00 0.00 0.00 77 1020.6
20260503020007 66 261 0.0 0.0 0.00 0.02 0.00 75 1020.7
20260503014508 67 261 0.0 0.0 0.00 0.02 0.00 74 1020.2
20260503013018 68 261 0.0 0.0 0.00 0.02 0.00 71 1020.4
20260503011505 69 261 0.0 0.0 0.00 0.02 0.00 69 1020.1
20260503010004 71 261 0.0 1.0 0.00 0.08 0.00 66 1020.0
20260503004504 72 338 1.0 3.0 0.00 0.08 0.00 62 1019.8
20260503003002 73 337 1.0 4.0 0.00 0.08 0.00 60 1019.8
20260503001501 73 5 2.0 6.0 0.00 0.08 0.00 56 1019.7
20260503000109 73 84 4.0 10.0 0.00 0.08 0.00 54 1019.7
20260502234616 73 25 4.0 10.0 0.00 0.26 0.00 56 1019.6
20260502233110 73 20 4.0 11.0 0.00 0.26 0.00 54 1019.3
20260502231610 74 56 4.0 11.0 0.00 0.26 0.00 54 1019.4
20260502230056 73 315 4.0 11.0 0.00 0.26 0.00 54 1019.4
20260502224554 74 56 4.0 12.0 0.00 0.44 0.00 57 1019.4
20260502223055 74 335 4.0 15.0 0.00 0.44 0.00 54 1019.4
20260502221601 73 74 4.0 16.0 0.00 0.44 0.00 54 1019.3
20260502220050 74 60 6.0 15.0 0.00 0.44 0.00 54 1019.3
20260502214554 74 28 6.0 13.0 0.00 0.44 0.00 56 1019.4
20260502213053 73 330 5.0 15.0 0.00 0.44 0.00 56 1019.5
20260502211548 73 92 2.0 14.0 0.00 0.44 0.00 57 1019.7
20260502210045 73 26 5.0 14.0 0.00 0.66 0.00 56 1019.8
20260502204550 73 40 4.0 15.0 0.00 0.66 0.00 57 1020.1
20260502203053 72 5 5.0 16.0 0.00 0.66 0.00 56 1020.1
20260502201544 72 34 7.0 15.0 0.00 0.66 0.00 56 1020.3
20260502200042 72 321 6.0 13.0 0.00 0.70 0.00 56 1020.5
20260502194608 72 13 4.0 14.0 0.00 0.70 0.00 58 1020.5
20260502193037 71 331 4.0 15.0 0.00 0.70 0.00 63 1020.6
20260502191538 71 52 7.0 13.0 0.00 0.70 0.00 62 1020.8
20260502190034 71 5 4.0 13.0 0.00 0.83 0.00 63 1021.1
20260502184535 70 36 6.0 17.0 0.00 0.83 0.00 61 1021.2
20260502183032 70 71 6.0 14.0 0.00 0.83 0.00 62 1021.4
20260502181531 70 316 5.0 13.0 0.00 0.83 0.00 63 1021.5
20260502163017 66 38 5.0 16.0 0.00 1.25 0.00 70 1022.0
20260502161514 65 17 6.0 16.0 0.00 1.25 0.00 71 1022.1
20260502151504 62 46 8.0 16.0 0.00 1.59 0.00 77 1021.5
20260502123036 52 355 3.0 9.0 0.00 1.98 0.00 96 1020.1
20260502121543 52 24 4.0 9.0 0.00 1.98 0.00 96 1019.8
20260502114529 52 307 2.0 11.0 0.00 1.99 0.00 96 1019.4
20260502113029 52 35 3.0 7.0 0.00 1.99 0.00 96 1019.3
20260502111525 52 50 3.0 11.0 0.00 1.99 0.00 96 1019.2
20260502110023 52 342 3.0 9.0 0.00 2.00 0.00 96 1018.9
20260502104537 52 15 4.0 8.0 0.00 2.00 0.00 96 1018.9
20260502103025 53 342 3.0 8.0 0.00 2.00 0.00 95 1018.8
20260502101516 53 15 3.0 7.0 0.00 2.00 0.00 95 1018.7
20260502091511 55 30 2.0 8.0 0.00 2.08 0.00 94 1017.6
20260502070058 56 37 5.0 12.0 0.00 2.60 0.00 94 1017.0
20260502064606 56 44 4.0 15.0 0.00 2.79 0.00 94 1016.9
20260502063052 56 30 5.0 15.0 0.00 2.79 0.00 94 1016.9
20260502061550 56 40 5.0 14.0 0.00 2.79 0.00 94 1017.0
20260502060050 56 355 6.0 17.0 0.00 2.79 0.00 94 1017.0
20260502054547 56 5 5.0 15.0 0.00 2.80 0.00 94 1017.0
20260502053044 56 355 6.0 17.0 0.00 2.80 0.00 95 1016.9
20260502051559 56 56 5.0 14.0 0.00 2.80 0.00 96 1016.9
20260502050038 56 49 7.0 16.0 0.00 3.04 2.80 96 1016.6
20260502044536 56 22 5.0 14.0 0.00 3.04 2.80 97 1016.3
20260502043040 56 69 7.0 16.0 0.00 3.04 2.80 97 1016.3
20260502041534 56 43 6.0 16.0 0.00 3.04 2.80 97 1016.2
20260502040032 56 86 6.0 16.0 0.00 3.18 2.80 97 1016.2
20260502034542 56 340 5.0 14.0 0.00 3.18 2.80 98 1016.4
20260502033042 56 25 5.0 14.0 0.00 3.18 2.80 98 1016.0
20260502031528 56 23 6.0 20.0 0.00 3.18 2.80 98 1015.9
20260502030026 56 73 6.0 13.0 0.00 3.18 2.80 98 1015.8